Regional Weather Roundup
Issued by NWS Nashville, TN

Home | Current Version | Previous Version | Text Only | Print | Product List | Glossary On
Versions: 1 2 3 4 5 6 7 8 9 10 11 12 13 14 15 16 17 18 19 20 21 22 23 24 25 26 27 28 29 30 31 32 33 34 35 36 37 38 39 40 41 42 43 44 45 46 47 48 49 50
000
ASUS44 KOHX 242110
RWROHX
MIDDLE TENNESSEE HOURLY WEATHER ROUNDUP
NATIONAL WEATHER SERVICE NASHVILLE TN
400 PM CDT SUN MAY 24 2015

NOTE: "FAIR" INDICATES FEW OR NO CLOUDS BELOW 12,000 FEET WITH
NO SIGNIFICANT WEATHER AND/OR OBSTRUCTIONS TO VISIBILITY.

* THESE REPORTS ARE NOT UNDER NWS QUALITY CONTROL AND MAY NOT
  REPORT WEATHER SUCH AS PRECIPITATION AND FOG.


TNZ005>011-023>034-057-059-062>066-078-080-242200
...NORTHERN MIDDLE TENNESSEE...

CITY           SKY/WX    TMP DP  RH WIND       PRES   REMARKS
CASTALIAN SPRG   N/A     86  64  48 S12       30.13F
CLARKSVILLE    PTSUNNY   81  65  58 SE16      30.09F
CROSSVILLE     SUNNY     77  55  46 SE9       30.25F
GLADEVILLE*      N/A     82  64  54 S7        30.08F
JOELTON*         N/A     84  70  61 S3        30.04F
MOUNT JULIET*    N/A     84  66  54 CALM      29.97F
NASHVILLE      PTSUNNY   85  63  47 SE16G23   30.13F
PORTLAND       MOSUNNY   82  63  51 SE13      30.12F
ROCKWOOD       SUNNY     79  56  45 S9        30.25F
SMYRNA         MOSUNNY   83  65  54 SE14G21   30.13F
SPARTA         MOSUNNY   82  63  51 S12       30.18F
$$
TNZ056-058-060-061-075>077-079-093>097-242200
...SOUTHERN MIDDLE TENNESSEE...

CITY           SKY/WX    TMP DP  RH WIND       PRES   REMARKS
COLUMBIA       PTSUNNY   82  66  57 SE10      30.10F
LEWISBURG      MOSUNNY   84  65  52 SE8       30.13F
MANCHESTER*      N/A     79  68  69 N2        30.09F
MCMINNVILLE    MOSUNNY   82  64  54 VRB7      30.18F
MOUNT PLEASANT   N/A     81  70  69 CALM      30.03F
SHELBYVILLE    MOSUNNY   84  68  58 SE12      30.16F
TULLAHOMA      PTSUNNY   79  63  57 SE8       30.19F
WINCHESTER     CLOUDY    79  64  61 SE13      30.18F
$$


...KEY TO REMARKS...
VSB - VISIBILITY IN MILES
WCI - WIND CHILL INDEX
HX  - HEAT INDEX




USA.gov is the U.S. government's official web portal to all federal, state and local government web resources and services.